• In Moldova, Republic
  • List of Countries
  • For 7 days
  • Water Temperature
  • Satellite Maps
  • Weather Map
  • Weather Widgets
  • user-avatar
    Login

    Hourly Weather Konstantyna

    Today, 24 July, Monday

    Time Temperature Precipitation Wind Pressure Humidity
    00:00 +35°C° 0 mm 5 mps 712 mmHg 27%
    01:00 +34°C° 0 mm 4 mps 712 mmHg 31%
    02:00 +33°C° 0 mm 3 mps 711 mmHg 34%
    03:00 +31°C° 0 mm 2 mps 711 mmHg 37%
    04:00 +31°C° 0 mm 2 mps 711 mmHg 40%
    05:00 +30°C° 0 mm 2 mps 711 mmHg 43%
    06:00 +30°C° 0 mm 2 mps 711 mmHg 47%
    07:00 +31°C° 0 mm 2 mps 711 mmHg 44%
    08:00 +33°C° 0 mm 3 mps 711 mmHg 41%
    09:00 +35°C° 0 mm 3 mps 712 mmHg 39%
    10:00 +36°C° 0 mm 4 mps 712 mmHg 36%
    11:00 +37°C° 0 mm 4 mps 711 mmHg 34%
    12:00 +39°C° 0 mm 5 mps 711 mmHg 32%
    13:00 +37°C° 0 mm 5 mps 711 mmHg 35%
    14:00 +37°C° 0 mm 5 mps 711 mmHg 37%
    15:00 +36°C° 0 mm 5 mps 710 mmHg 40%
    16:00 +34°C° 0 mm 5 mps 710 mmHg 48%
    17:00 +32°C° 0 mm 5 mps 710 mmHg 55%
    18:00 +29°C° 0 mm 4 mps 710 mmHg 63%
    19:00 +27°C° 0 mm 4 mps 710 mmHg 67%
    20:00 +26°C° 0 mm 3 mps 711 mmHg 71%
    21:00 +25°C° 0 mm 2 mps 711 mmHg 76%
    22:00 +25°C° 0 mm 2 mps 711 mmHg 76%
    23:00 +24°C° 0 mm 2 mps 711 mmHg 77%

    Tomorrow, 25 July, Tuesday

    Time Temperature Precipitation Wind Pressure Humidity
    00:00 +24°C° 0 mm 1 mps 711 mmHg 78%
    01:00 +23°C° 0 mm 1 mps 710 mmHg 79%
    02:00 +23°C° 0 mm 1 mps 710 mmHg 81%
    03:00 +23°C° 0 mm 1 mps 710 mmHg 82%
    04:00 +23°C° 0 mm 1 mps 710 mmHg 81%
    05:00 +23°C° 0 mm 1 mps 710 mmHg 80%
    06:00 +21°C° 0 mm 0 mps 710 mmHg 79%
    07:00 +24°C° 0 mm 1 mps 710 mmHg 69%
    08:00 +26°C° 0 mm 1 mps 710 mmHg 60%
    09:00 +28°C° 0 mm 2 mps 710 mmHg 50%
    10:00 +29°C° 0 mm 2 mps 710 mmHg 45%
    11:00 +30°C° 0 mm 3 mps 710 mmHg 40%
    12:00 +33°C° 0 mm 4 mps 710 mmHg 35%
    13:00 +33°C° 0 mm 4 mps 710 mmHg 35%
    14:00 +33°C° 0 mm 4 mps 709 mmHg 35%
    15:00 +33°C° 0 mm 5 mps 709 mmHg 35%
    16:00 +32°C° 0 mm 5 mps 709 mmHg 41%
    17:00 +29°C° 0 mm 5 mps 709 mmHg 48%
    18:00 +28°C° 0 mm 5 mps 709 mmHg 54%
    19:00 +27°C° 0 mm 4 mps 709 mmHg 60%
    20:00 +25°C° 0 mm 3 mps 709 mmHg 66%
    21:00 +24°C° 0 mm 2 mps 709 mmHg 72%
    22:00 +24°C° 0 mm 1 mps 709 mmHg 73%
    23:00 +24°C° 0 mm 1 mps 709 mmHg 74%

    Day after tomorrow, 26 July, Wednesday

    Time Temperature Precipitation Wind Pressure Humidity
    00:00 +21°C° 0 mm 0 mps 709 mmHg 74%
    01:00 +23°C° 0 mm 1 mps 708 mmHg 76%
    02:00 +23°C° 0 mm 1 mps 708 mmHg 78%
    03:00 +22°C° 0 mm 1 mps 708 mmHg 80%
    04:00 +22°C° 0 mm 1 mps 708 mmHg 80%
    05:00 +22°C° 0 mm 1 mps 708 mmHg 79%
    06:00 +22°C° 0 mm 1 mps 709 mmHg 78%
    07:00 +24°C° 0 mm 1 mps 709 mmHg 68%
    08:00 +25°C° 0 mm 1 mps 709 mmHg 58%
    09:00 +27°C° 0 mm 1 mps 710 mmHg 48%
    10:00 +28°C° 0 mm 2 mps 710 mmHg 42%
    11:00 +30°C° 0 mm 3 mps 710 mmHg 35%
    12:00 +32°C° 0 mm 4 mps 710 mmHg 29%
    13:00 +33°C° 0 mm 5 mps 710 mmHg 28%
    14:00 +33°C° 0 mm 5 mps 709 mmHg 28%
    15:00 +33°C° 0 mm 6 mps 709 mmHg 27%
    16:00 +32°C° 0 mm 5 mps 709 mmHg 31%
    17:00 +29°C° 0 mm 4 mps 709 mmHg 35%
    18:00 +28°C° 0 mm 4 mps 709 mmHg 38%
    19:00 +27°C° 0 mm 3 mps 709 mmHg 44%
    20:00 +26°C° 0 mm 2 mps 710 mmHg 50%
    21:00 +24°C° 0 mm 1 mps 710 mmHg 55%
    22:00 +24°C° 0 mm 1 mps 710 mmHg 57%
    23:00 +24°C° 0 mm 1 mps 710 mmHg 59%

    27 July, Thursday

    Time Temperature Precipitation Wind Pressure Humidity
    00:00 +23°C° 0 mm 1 mps 709 mmHg 61%
    01:00 +23°C° 0 mm 1 mps 709 mmHg 61%
    02:00 +22°C° 0 mm 1 mps 709 mmHg 62%
    03:00 +22°C° 0 mm 1 mps 709 mmHg 62%
    04:00 +22°C° 0 mm 1 mps 709 mmHg 59%
    05:00 +23°C° 0 mm 1 mps 709 mmHg 56%
    06:00 +23°C° 0 mm 1 mps 710 mmHg 52%
    07:00 +25°C° 0 mm 1 mps 710 mmHg 46%
    08:00 +27°C° 0 mm 1 mps 711 mmHg 40%
    09:00 +28°C° 0 mm 1 mps 711 mmHg 33%
    10:00 +29°C° 0 mm 2 mps 711 mmHg 30%
    11:00 +31°C° 0 mm 2 mps 711 mmHg 27%
    12:00 +32°C° 0 mm 2 mps 711 mmHg 24%
    13:00 +33°C° 0 mm 3 mps 711 mmHg 24%
    14:00 +34°C° 0 mm 3 mps 711 mmHg 23%
    15:00 +34°C° 0 mm 3 mps 711 mmHg 23%
    16:00 +33°C° 0 mm 3 mps 711 mmHg 26%
    17:00 +33°C° 0 mm 3 mps 711 mmHg 28%
    18:00 +31°C° 0 mm 3 mps 710 mmHg 31%
    19:00 +30°C° 0 mm 2 mps 711 mmHg 34%
    20:00 +28°C° 0 mm 2 mps 711 mmHg 38%
    21:00 +27°C° 0 mm 1 mps 711 mmHg 41%
    22:00 +27°C° 0 mm 1 mps 711 mmHg 42%
    23:00 +26°C° 0 mm 1 mps 711 mmHg 43%

    28 July, Friday

    Time Temperature Precipitation Wind Pressure Humidity
    00:00 +26°C° 0 mm 1 mps 711 mmHg 44%
    01:00 +24°C° 0 mm 0 mps 711 mmHg 45%
    02:00 +23°C° 0 mm 0 mps 710 mmHg 45%
    03:00 +23°C° 0 mm 0 mps 710 mmHg 46%
    04:00 +24°C° 0 mm 0 mps 710 mmHg 43%
    05:00 +24°C° 0 mm 0 mps 711 mmHg 41%
    06:00 +25°C° 0 mm 0 mps 711 mmHg 39%
    07:00 +29°C° 0 mm 1 mps 712 mmHg 34%
    08:00 +31°C° 0 mm 1 mps 712 mmHg 30%
    09:00 +32°C° 0 mm 2 mps 713 mmHg 25%
    10:00 +34°C° 0 mm 2 mps 713 mmHg 23%
    11:00 +35°C° 0 mm 3 mps 713 mmHg 22%
    12:00 +37°C° 0 mm 3 mps 713 mmHg 20%
    13:00 +37°C° 0 mm 3 mps 713 mmHg 20%
    14:00 +37°C° 0 mm 4 mps 712 mmHg 20%
    15:00 +37°C° 0 mm 4 mps 712 mmHg 20%
    16:00 +36°C° 0 mm 4 mps 712 mmHg 22%
    17:00 +35°C° 0 mm 4 mps 712 mmHg 25%
    18:00 +34°C° 0 mm 4 mps 712 mmHg 27%
    19:00 +33°C° 0 mm 3 mps 712 mmHg 30%
    20:00 +30°C° 0 mm 2 mps 712 mmHg 33%
    21:00 +29°C° 0 mm 2 mps 713 mmHg 36%
    22:00 +29°C° 0 mm 1 mps 712 mmHg 36%
    23:00 +28°C° 0 mm 1 mps 712 mmHg 37%

    29 July, Saturday

    Time Temperature Precipitation Wind Pressure Humidity
    00:00 +28°C° 0 mm 1 mps 712 mmHg 38%
    01:00 +27°C° 0 mm 1 mps 712 mmHg 37%
    02:00 +27°C° 0 mm 1 mps 712 mmHg 37%
    03:00 +27°C° 0 mm 1 mps 711 mmHg 37%
    04:00 +28°C° 0 mm 1 mps 712 mmHg 35%
    05:00 +28°C° 0 mm 1 mps 712 mmHg 34%
    06:00 +29°C° 0 mm 1 mps 712 mmHg 32%
    07:00 +31°C° 0 mm 1 mps 713 mmHg 28%
    08:00 +33°C° 0 mm 1 mps 713 mmHg 24%
    09:00 +36°C° 0 mm 1 mps 713 mmHg 20%
    10:00 +38°C° 0 mm 2 mps 713 mmHg 18%
    11:00 +39°C° 0 mm 2 mps 713 mmHg 16%
    12:00 +40°C° 0 mm 2 mps 713 mmHg 15%
    13:00 +40°C° 0 mm 3 mps 713 mmHg 14%
    14:00 +42°C° 0 mm 3 mps 713 mmHg 14%
    15:00 +42°C° 0 mm 4 mps 712 mmHg 14%
    16:00 +41°C° 0 mm 4 mps 712 mmHg 16%
    17:00 +40°C° 0 mm 4 mps 712 mmHg 17%
    18:00 +38°C° 0 mm 4 mps 712 mmHg 18%
    19:00 +37°C° 0 mm 3 mps 712 mmHg 20%
    20:00 +35°C° 0 mm 3 mps 712 mmHg 22%
    21:00 +32°C° 0 mm 2 mps 712 mmHg 24%
    22:00 +32°C° 0 mm 2 mps 712 mmHg 24%
    23:00 +31°C° 0 mm 2 mps 711 mmHg 24%
    Show more